| time (UTC) | temp F | wind direction | speed MPH | gust MPH | rain 1hr in | rain 24hr in | rain mn in | humidity % | barometer mb |
| 20260504190058 | 79 | 0 | 0.0 | 4.0 | 0.00 | 0.00 | 0.00 | 42 | 1015.9 |
| 20260504184603 | 78 | 236 | 0.0 | 2.0 | 0.00 | 0.00 | 0.00 | 44 | 1016.2 |
| 20260504183046 | 77 | 260 | 1.0 | 3.0 | 0.00 | 0.00 | 0.00 | 43 | 1016.3 |
| 20260504181548 | 78 | 0 | 0.0 | 2.0 | 0.00 | 0.00 | 0.00 | 45 | 1016.4 |
| 20260504180045 | 76 | 291 | 0.0 | 2.0 | 0.00 | 0.00 | 0.00 | 46 | 1016.6 |
| 20260504174546 | 75 | 0 | 1.0 | 2.0 | 0.00 | 0.00 | 0.00 | 49 | 1016.9 |
| 20260504173038 | 74 | 0 | 0.0 | 2.0 | 0.00 | 0.00 | 0.00 | 49 | 1017.1 |
| 20260504171550 | 73 | 0 | 0.0 | 1.0 | 0.00 | 0.00 | 0.00 | 52 | 1017.3 |
| 20260504081537 | 43 | 0 | 0.0 | 0.0 | 0.00 | 0.00 | 0.00 | 92 | 1018.1 |
| 20260504044545 | 48 | 0 | 0.0 | 0.0 | 0.00 | 0.00 | 0.00 | 85 | 1019.2 |
| 20260504043041 | 48 | 0 | 0.0 | 0.0 | 0.00 | 0.00 | 0.00 | 85 | 1019.1 |
| 20260504041545 | 48 | 0 | 0.0 | 0.0 | 0.00 | 0.00 | 0.00 | 85 | 1019.2 |
| 20260504040041 | 49 | 0 | 0.0 | 0.0 | 0.00 | 0.00 | 0.00 | 83 | 1019.2 |
| 20260504034537 | 49 | 0 | 0.0 | 0.0 | 0.00 | 0.00 | 0.00 | 81 | 1019.2 |
| 20260504033051 | 50 | 0 | 0.0 | 0.0 | 0.00 | 0.00 | 0.00 | 81 | 1019.3 |
| 20260504031548 | 51 | 0 | 0.0 | 0.0 | 0.00 | 0.00 | 0.00 | 79 | 1019.3 |
| 20260504030049 | 51 | 0 | 0.0 | 0.0 | 0.00 | 0.00 | 0.00 | 77 | 1019.1 |
| 20260504024553 | 52 | 0 | 0.0 | 0.0 | 0.00 | 0.00 | 0.00 | 76 | 1019.2 |
| 20260504023050 | 52 | 0 | 0.0 | 0.0 | 0.00 | 0.00 | 0.00 | 74 | 1019.0 |
| 20260504021551 | 53 | 0 | 0.0 | 0.0 | 0.00 | 0.00 | 0.00 | 73 | 1018.9 |
| 20260504020048 | 54 | 0 | 0.0 | 0.0 | 0.00 | 0.00 | 0.00 | 71 | 1018.7 |
| 20260504014539 | 55 | 0 | 0.0 | 0.0 | 0.00 | 0.00 | 0.00 | 70 | 1018.5 |
| 20260504013046 | 55 | 0 | 0.0 | 0.0 | 0.00 | 0.00 | 0.00 | 69 | 1018.5 |
| 20260504011541 | 56 | 0 | 0.0 | 0.0 | 0.00 | 0.00 | 0.00 | 66 | 1018.2 |
| 20260504010037 | 57 | 0 | 0.0 | 0.0 | 0.00 | 0.00 | 0.00 | 63 | 1018.1 |
| 20260504004559 | 58 | 0 | 0.0 | 0.0 | 0.00 | 0.00 | 0.00 | 59 | 1018.0 |
| 20260504003043 | 60 | 0 | 0.0 | 0.0 | 0.00 | 0.00 | 0.00 | 57 | 1017.7 |
| 20260504001543 | 61 | 0 | 0.0 | 0.0 | 0.00 | 0.00 | 0.00 | 53 | 1017.7 |
| 20260504000040 | 62 | 0 | 0.0 | 0.0 | 0.00 | 0.00 | 0.00 | 50 | 1017.6 |
| 20260503234549 | 64 | 0 | 0.0 | 1.0 | 0.00 | 0.00 | 0.00 | 48 | 1017.7 |
| 20260503233044 | 65 | 0 | 0.0 | 1.0 | 0.00 | 0.00 | 0.00 | 43 | 1017.7 |
| 20260503231552 | 66 | 0 | 0.0 | 2.0 | 0.00 | 0.00 | 0.00 | 38 | 1017.8 |
| 20260503230044 | 67 | 84 | 0.0 | 3.0 | 0.00 | 0.00 | 0.00 | 37 | 1017.8 |
| 20260503224541 | 70 | 0 | 0.0 | 1.0 | 0.00 | 0.00 | 0.00 | 37 | 1017.9 |
| 20260503223051 | 69 | 297 | 0.0 | 1.0 | 0.00 | 0.00 | 0.00 | 42 | 1017.8 |
| 20260503221538 | 68 | 59 | 0.0 | 1.0 | 0.00 | 0.00 | 0.00 | 43 | 1017.8 |
| 20260503220049 | 68 | 61 | 0.0 | 2.0 | 0.00 | 0.00 | 0.00 | 43 | 1017.8 |
| 20260503214543 | 67 | 0 | 1.0 | 3.0 | 0.00 | 0.00 | 0.00 | 42 | 1018.0 |
| 20260503213045 | 68 | 0 | 0.0 | 4.0 | 0.00 | 0.00 | 0.00 | 41 | 1018.1 |
| 20260503211544 | 68 | 335 | 0.0 | 3.0 | 0.00 | 0.00 | 0.00 | 41 | 1018.2 |
| 20260503210041 | 69 | 311 | 1.0 | 4.0 | 0.00 | 0.00 | 0.00 | 42 | 1018.2 |
| 20260503204538 | 70 | 54 | 1.0 | 4.0 | 0.00 | 0.00 | 0.00 | 40 | 1018.3 |
| 20260503203047 | 70 | 304 | 0.0 | 3.0 | 0.00 | 0.00 | 0.00 | 39 | 1018.5 |
| 20260503201538 | 71 | 142 | 0.0 | 4.0 | 0.00 | 0.00 | 0.00 | 35 | 1018.8 |
| 20260503200037 | 71 | 250 | 0.0 | 5.0 | 0.00 | 0.00 | 0.00 | 42 | 1019.0 |
| 20260503194542 | 71 | 296 | 0.0 | 4.0 | 0.00 | 0.00 | 0.00 | 42 | 1019.3 |
| 20260503193049 | 70 | 0 | 0.0 | 4.0 | 0.00 | 0.00 | 0.00 | 43 | 1019.5 |
| 20260503191540 | 71 | 0 | 0.0 | 4.0 | 0.00 | 0.00 | 0.00 | 44 | 1019.8 |